"Pseudo-MPEC" for ZTF03Pd

Created 2019 Jun 27 18:07:20 UT using Find_Orb

Click here for an explanation of pseudo-MPECs

 
 Astrometry: 
     ZTF03Pd  C2019 05 31.24616017 13 34.65 -20 08 44.7    ~6LL7 20.14gUNEOCPI41
     ZTF03Pd  C2019 05 31.35087017 13 31.00 -20 08 28.9    ~6LL7 19.16rUNEOCPI41
     ZTF03Pd  C2019 06 03.26919017 11 50.95 -20 01 05.4    ~6LL7 19.63gUNEOCPI41
     ZTF03Pd  C2019 06 03.31419017 11 49.35 -20 00 58.7    ~6LL7 19.28rUNEOCPI41
     ZTF03Pd KC2019 06 05Fn5]*+?v'QQo)n6INyie%``Q6!$v;xVamEDQP='1nXQLUToD@N*Z474
     ZTF03Pd KC2019 06 05t6^pQ]9*K]5U!fIul!!bVVWTP`80f2F$\xab7EgNZBOw.yLT'd]s474
     ZTF03Pd KC2019 06 053YVxyBD$$v?@3e-EOkv7DkR^-AZ/:j-m2+q6(k0oV=1UFW,]!bN.474
     ZTF03Pd KC2019 06 05F[JB_+0)l#wO,%@=OP4`_[=krAstrometrys.G'T\+PxD[.NMfDK474
     ZTF03Pd 1C2019 06 06;P*[GYe6tJq7idJjkXMQ/%uj4#rGCoR'PS;;i5e`[*k_t6rGg'M=Q62
     ZTF03Pd 1C2019 06 06K;@Coh@dtnM=c=,(W2a##6:O][Vdx\Y?YNaTl5V:bM#YY,7E$xI'Q62
     ZTF03Pd 1C2019 06 064=WLxgjQ#JJ]Re7yG9t=v-#3R'eUbLs%;pVtZ!'Elyms;A67Nm$[Q62
     ZTF03Pd KC2019 06 07NjjkjqdJv%@,xofSveFVdmO%5@q=guReC-/nKYjQTvOI\y'(Ukv^E94
     ZTF03Pd KC2019 06 07JeXA(F=[b\XIlLt%p%YF.\bk[iMjZ#O^h-qSw,o3r%Dm_:L`[!H6E94
     ZTF03Pd KC2019 06 07kS'KW0/y=iJK@0redacted;tTNmYr:rf@7Ul([(si/x?by7Q$r4jE94
     ZTF03Pd KC2019 06 08Lc7_5QXVLI\';ecC8R-7,y+=Pc3x$(;;h*G`s#w=;TIkU)j;u$4QX31
     ZTF03Pd KC2019 06 08lZ=-H.b'Y_\wUyl0IoUXxsxuxfLTX,L@btN60wPlN+EAoHjK'BKTX31
     ZTF03Pd KC2019 06 08t,aasg39OaBnQRk'x@gw;\F+a'Mf5GfBbm]\ZJOceqWI#x!w?y8UX31
     ZTF03Pd KC2019 06 08yw=Z$]o%JkhqN$+RSn=K4N)f*Z+)r`\IWM;1,?Wt6+Ru^,iU1oC9I47
     ZTF03Pd KC2019 06 08R/C2:^Ubaf$4'jAFGo6,1D.UTs$w2W-0C!6\0SCw12X!-%oc$'afI47
     ZTF03Pd KC2019 06 08\;9`9q6oUQfYN=k`uFm#JJfNQ'ogC.'64Sj$y_Se[(cBX0523_\S595
     ZTF03Pd KC2019 06 08hg47.1E6G4CklEkQR0p3m3/KCE]0^@=LaRcpcc`eQ)VC(!O4fyGY595
     ZTF03Pd KC2019 06 092W*VVA@:;^A#6^sy!YdRuPDPYXXYOjj3FUA;J%\MotHv3g(Ob2MlK88
     ZTF03Pd KC2019 06 09k_/I?8n/Ln0'iKQHaY=5Yf1mSnvoJ;r/$A(=5li^JM'!PB4mWn3CK88
     ZTF03Pd HC2019 06 10;f775=aQ5qU1SrEa8Ge@Ngpp!c(IQKdqb-%=8ohmZB@Zg[s5G9=h691
     ZTF03Pd HC2019 06 10chCpmWA1O]g\+N1sAk;;)QSrRFi@/Wc5'0mBB_cXn,gh'3]w9@NF691
     ZTF03Pd HC2019 06 108l(U9=juN7QJ373Em(Q4J3G-d:(8`@r,rap5,k=wvAe3U0Z7o;)p691
     ZTF03Pd KC2019 06 14me*_KKW2')MQr3Bjes1P,f`AWVjr_:uR%%k+*H=f+D=XX:HC3YM?691
     ZTF03Pd KC2019 06 14Fg:WD^*]y%j$^[/i^/iKLG]foZyclick)as)N3`rrj0qIO.[9Qs?691
     ZTF03Pd 9C2019 06 19`cD2d[y4oR=VKF+9`WeQg\geb#$9vxS9B@XXsFMK=*wcij#FUThkG40
     ZTF03Pd 9C2019 06 19/UVK2[?c3rV/84ge4o7QShnBXrB30$5@Z;RoZo(RL8E:Y0ON![iuG40
     ZTF03Pd 9C2019 06 19#GGZM08=PsX]B8,KDX=CMPTYU\:y1rFXr[,(s#3F[JiMVnqie;;IG40
     ZTF03Pd HC2019 06 20tXTiWfa$DY9*;2aN3BRIcpAR56nP_f%qtnO`/-_hFC]2+fE'!Q'K691
     ZTF03Pd HC2019 06 20L3`b[k!!prv!\M.uo.?,u$r@+kv\rGb`.JAy%CIx?ASUHb+=J$#E691
     ZTF03Pd HC2019 06 20(v@3gJ9c2yK7A$'n7HHFpdQg4UkZ]AK.OGYa!_Rvco:E=+m?Q)]_691
     ZTF03Pd KC2019 06 208PRPq,UY*[[E\tx28mL]0W*PbH3E.+^8]hdiCCk'X'LnUJm=RP(cL29
     ZTF03Pd KC2019 06 20[2L]yKE+c^BQHfNE1UX8(LHRS;J_l,#'r)qTdVHyIJ?xIP-'C5.kL29
     ZTF03Pd KC2019 06 20B;,lTRhereRW3$:ROI,g_jh$hkTvMQe[B-POS*[_ocVG9%=yF[^7L29
     ZTF03Pd KC2019 06 20#YHforJ/uO0D6`Mjk/)-Xm=Y`Cv_C1wZ4mn\=W2?,BC]Eg(.pif=L29
     ZTF03Pd KC2019 06 20,EW)upM,mat:/1XgCQs?oo]*#TsjKZi)c?yjKGRaa1sN.KMtr*iVL01
     ZTF03Pd IC2019 06 204Gdbk5BZr_yrP%s\%4Cj.Lx3NK-UQVDx@`i0\#(AWTq6'SoQ_$#]L01
     ZTF03Pd IC2019 06 207+bx+rOp'6VJF8(O3_]+Oe8D'C)_F@v+\tk.$-X+Ch0jZ8snw0SuL01
     ZTF03Pd KC2019 06 20EJVi-;5'7u=ffjM^OpM_:-QgU(x..MTX*C?y2Fk-dWMD!(*K/DeqL01
     ZTF03Pd  C2019 06 22.18359 17 00 41.62 -19 15 27.8    ~6M5M 19.0 GVNEOCPI52
     ZTF03Pd  C2019 06 22.19028 17 00 41.38 -19 15 26.5    ~6M5M 19.1 GVNEOCPI52
     ZTF03Pd  C2019 06 22.19805 17 00 41.14 -19 15 26.0    ~6M5M 19.0 GVNEOCPI52
     ZTF03Pd  C2019 06 22.20500 17 00 40.88 -19 15 25.5    ~6M5M 19.3 GVNEOCPI52
     ZTF03Pd  C2019 06 23.23909 17 00 06.77 -19 13 10.3    ~6N6b       VNEOCPI52
     ZTF03Pd  C2019 06 23.24650 17 00 06.54 -19 13 09.6    ~6N6b 19.1 GVNEOCPI52
     ZTF03Pd  C2019 06 23.25390 17 00 06.28 -19 13 08.7    ~6N6b 18.8 GVNEOCPI52
     ZTF03Pd  C2019 06 24.28003 16 59 33.05 -19 10 58.0    ~6O7b 19.3 GVNEOCPI52
     ZTF03Pd  C2019 06 24.28631 16 59 32.85 -19 10 56.8    ~6O7b 19.6 GVNEOCPI52
     ZTF03Pd  C2019 06 24.29301 16 59 32.57 -19 10 55.8    ~6O7b 19.9 GVNEOCPI52
     ZTF03Pd  C2019 06 24.30113 16 59 32.31 -19 10 54.3    ~6O7b 19.4 GVNEOCPI52
     ZTF03Pd KC2019 06 24u-L$+52XiEfdx1-`OgsshU#meG26w?b!$wg]@2S,wI_b0EkNfdG.K88
     ZTF03Pd KC2019 06 24s%!84N#S7XXhFo/2H;/LK\y1fZ2tTkPlrduOq2.O.xc@!%*MYU/3K88
     ZTF03Pd  C2019 06 26.21584 16 58 32.28 -19 06 55.9    ~6Q5q 18.6 GVNEOCPI52
     ZTF03Pd  C2019 06 26.22981 16 58 31.79 -19 06 54.2    ~6Q5q 19.5 GVNEOCPI52
     ZTF03Pd KC2019 06 26rtSR-'`xW-Ju(mnbvHpu2jvkNI$*27V-Db:LIl]0=Y8=L,YHTOw@E23
     ZTF03Pd KC2019 06 26ss1Hv6,/'bL$0x'V[7snOj@5ICDR@dL:vNjfZymvo?Yq(6-s/!#TE23
     ZTF03Pd KC2019 06 26v8#?6V_!\SQ0D=DwdtG^tUV*-Zny736GLk)ZBmX9k/WeV;:7KpSAE23
     ZTF03Pd KC2019 06 26T39aG-a_@Q`GBD'7_1]nBH%^bc3I*A]x)*+DCu*Mq(.ismTV;vY@E94
     ZTF03Pd KC2019 06 26Zu6wb`\*CZ3'?1%E`crWkdMTuCPT=eOT8:xB72/rR@ww:J7_*k$XE94
     ZTF03Pd KC2019 06 26Ey!O-:6LWNf/JWv3PN-'%gvO$[ZI_ln8GexplanationxE?8\lIdE94
     ZTF03Pd KC2019 06 2623ij/t70!wwFV3Z%rNeML0lF8B1KUToVi/@DKrvK(/_-[e5F8;1_K88
     ZTF03Pd KC2019 06 26ZWwVBevq)-:8'_=y[C'D(iYnX`tkE.wdEyOuq2\1$JAq_S)GBcoCK88
     ZTF03Pd KC2019 06 26UNhU\jR5QOe;!h??8;7xYj[ZfxO@u_ocn+TF,CQ5b.Qdvp]4eNfEK88
     ZTF03Pd  C2019 06 27.21601 16 58 01.75 -19 04 53.9    ~6R67 19.8 GVNEOCPI52
     ZTF03Pd  C2019 06 27.22242 16 58 01.54 -19 04 53.5    ~6R67 19.1 GVNEOCPI52
     ZTF03Pd  C2019 06 27.23054 16 58 01.34 -19 04 52.6    ~6R67 18.9 GVNEOCPI52
     ZTF03Pd  C2019 06 27.23774 16 58 01.05 -19 04 52.1    ~6R67 19.4 GVNEOCPI52

Station data:
(474) Mount John Observatory, Lake Tekapo  (S43.987388 E170.464960)  New
   Zealand.  Observers A. C. Gilmore, P. M. Kilmartin. Measurer P. M.
   Kilmartin. 1.0-m f/7.7 reflector + CCD.
(595) Farra d'Isonzo  (N45.915734 E13.525780)  Italy.  Observers L.
   Bittesini, F. Fabris, E. Pettarin, F. Piani. Measurer E. Pettarin. 0.30-m
   f/4.5 reflector + CCD.
(691) Steward Observatory, Kitt Peak - Spacewatch  (N31.962174 W111.600327)
   US/Arizona.  Observer J. V. Scotti. 0.9-m f/3 reflector + CCD.
(E23) Arcadia  (S33.621199 E151.071190)  Australia/NSW.
(E94) Gisborne (Possum Observatory)  (S38.629922 E177.883310)  New Zealand.
(G40) Slooh.com Canary Islands Observatory  (N28.299720 W16.508260)  Canary
   Islands (Spain).  Observers G. Gašparović, Y. Chen. 0.43-m f/6.8 Corrected
   Dall-Kirkham + CCD.
(I41) Palomar Mountain--ZTF  (N33.357340 W116.859780)  US/California. 1.2-m
   f/2.44 Oschin Schmidt + CCD.
(I47) Pierre Auger Observatory, Malargüe  (S35.495442 W69.449700)  Argentina.
(I52) Steward Observatory, Mt. Lemmon Station  (N32.442547 W110.788920)
   US/Arizona.  Observers T. A. Pruyne, B. M. Africano, E. J. Christensen, G.
   A. Farneth, D. C. Fuls, A. R. Gibbs, A. D. Grauer, H. Groeller, J. A.
   Johnson, R. A. Kowalski, S. M. Larson, G. J. Leonard, R. L. Seaman, F. C.
   Shelly. 1.0-m reflector + CCD.
(K88) GINOP-KHK, Piszkéstető  (N47.917622 E19.893600)  Hungary.  Observer K.
   Sárneczky. 0.60-m Schmidt + CCD.
(L01) Višnjan Observatory, Tičan  (N45.290900 E13.749300)  Croatia.
   Observers K. Korlević, E. Pettarin. Measurer E. Pettarin. 1.0-m f/2.9
   reflector + CCD.
(L29) Drebach-South Observatory, Windhoek  (S23.460102 E18.016900)  Namibia.
(Q62) iTelescope Observatory, Siding Spring  (S31.273289 E149.064420)
   Australia/NSW. 0.50-m f/6.8 astrograph + CCD + focal reducer, 0.70-m f/6.6
   astrograph + CCD.
(X31) Galileo Galilei Observatory, Oro Verde  (S31.823022 W60.520660)
   Argentina.

Orbital elements:  ZTF03Pd
   Perihelion 2019 Oct 26.974277 +/- 0.301 TT = 23:22:57 (JD 2458783.474277)
Epoch 2019 Jun 27.0 TT = JDT 2458661.5   Ju: 0.2627   Sa: 0.3843
M 352.13825628 +/- 0.015            (J2000 ecliptic)          AutoNEOCP
n   0.06445411 +/- 9.03e-5          Peri.   57.17053 +/- 0.12
a   6.16077898 +/- 0.00575          Node   234.12629 +/- 0.046
e   0.5311833 +/- 0.00102           Incl.    5.19082 +/- 0.012
P  15.29                   H 15.2   G  0.15   U  6.5  
q 2.88827551 +/- 0.00427    Q 9.43328245 +/- 0.0145
From 70 observations 2019 May 31-June 27; mean residual 0".65
Residuals in arcseconds: 
190531 I41  .11-  .12+    190610 691  .37-  .14+    190623 I52  .19-  .03-    
190531 I41  .24+  .28+    190610 691  .38-  .24+    190624 I52  .09-  .77-    
190603 I41  .59-  .20+    190614 691  .30-  .20+    190624 I52  .07+  .38-    
190603 I41  .06-  .17+    190614 691  .17-  .06+    190624 I52  .70-  .24-    
190605 474  .01+  .16+    190619 G40  .07-  .32-    190624 I52  .52-  .22+    
190605 474  .16-  .04+    190619 G40  .05-  .50-    190624 K88  .02+  .19-    
190605 474  .17-  .11+    190619 G40  .35-  .06+    190624 K88  .06+  .44-    
190605 474  .06-  .09+    190620 691  .35-  .08+    190626 I52  .12+  .11-    
190606 Q62  .43-  .73-    190620 691  .15-  .10-    190626 I52  .41-  .10-    
190606 Q62  .44-  .49-    190620 691  .17+  .22-    190626 E23  .73+  .28-    
190606 Q62  .44-  .45-    190620 L29  .00   .31-    190626 E23  .90-  .62-    
190607 E94  .16-  .12+    190620 L29  .49-  .43-    190626 E23  .68-  .03+    
190607 E94  2.8+  .39+    190620 L29  .14-  .15+    190626 E94  .29-  .57+    
190607 E94  1.1+  1.7+    190620 L29  .07-  .12+    190626 E94  .07+  .33+    
190608 X31  .02+  .20+    190620 L01  .43+  .25-    190626 E94  4.9+  1.6+    
190608 X31  .03-  .13+    190620 L01  .04+  .10+    190626 K88  .10+  .11-    
190608 X31  .02-  .62+    190620 L01  .44+  .69-    190626 K88  .11-  .21+    
190608 I47  .27+  1.6-    190620 L01  .47+  .34-    190626 K88  .88-  .07-    
190608 I47  .72-  .10-    190622 I52  .31-  .23+    190627 I52  .43-  .71+    
190608 595  .94+  .73-    190622 I52  .43-  .67+    190627 I52  .53-  .35+    
